Location: Diguira
(13.1838°N, 4.9109°W)
Time: 16:58:38
(UTC+00:00)

Cosmos 2285 Rocket - Pass Details

Date: 18 September 2020
Orbit: 970 x 1000 km, 74.0° (Epoch: 25 October)

Event Time Altitude Azimuth Distance (km) Brightness Sun altitude
Rises 19:21:44 0° 175° (S) 3,651 6.9 -16.2°
Reaches altitude 10° 19:24:26 10° 167° (SSE) 2,704 6.1 -16.9°
Maximum altitude 19:30:11 39° 101° (E) 1,417 4.3 -18.3°
Drops below altitude 10° 19:35:56 10° 34° (NE) 2,711 6.1 -19.7°
Sets 19:38:38 0° 27° (NNE) 3,661 6.8 -20.3°
